Погода в Рыкове

Украина / Херсонская область     46°19′50″N   34°45′09″E
темп.,
°C
ветер,
м/с
пор.,
м/с
влажн.,
%
обл.,
%
осадки,
мм/ч
давл.,
гПа
погр.,
м
15 мая, сб
сб1500:00+15з47710 0.0 1012103
03:00+13з45824 0.0 101383
06:00+13зюз33800 0.0 101372
09:00+19юз335930 0.0 1014426
12:00+21ююз445114 0.0 1014794
15:00+23ю334515 0.0 10131116
18:00+21ююв33575 0.0 1013235
21:00+17ю11700 0.0 101311
16 мая, вс
вс1600:00+16св227118 0.0 101311
03:00+15ссв3474100 0.0 101246
06:00+14ссв487295 0.0 1011125
09:00+20св5857100 0.0 1011413
12:00+24всв5641100 0.0 1009988
15:00+25в5744100 0.0 10071016
18:00+22вюв4663100 0.0 1005188
21:00+19св4107985 0.2 1004163
17 мая, пн
пн1700:00+18св5983100 2.1 1002169
03:00+18всв81379100 8.9 1001225
06:00+17ююз459492 0.1 1002212
09:00+18юз4691100 0.2 1003400
12:00+20ююз897599 0.0 1005834
15:00+18юз10127996 0.1 1006714
18:00+18зюз8118039 0.0 1007679
21:00+16юз6983100 0.0 1009341
18 мая, вт
вт1800:00+15юз7118959 0.0 1009348
03:00+14ююз59912 0.2 1009242
06:00+15ю47880 0.0 1010221
09:00+18ю687296 0.0 1010386
12:00+19ю51075100 0.6 1010444
15:00+22юз81159100 1.4 10091276
18:00+21зюз8126563 0.0 10101005
21:00+17зюз51179100 0.0 1011352
19 мая, ср
ср1900:00+15юз59885 0.1 1012218
03:00+14зюз47940 0.1 1012186
06:00+15з239175 0.0 1012113
09:00+16зсз1383100 0.9 1012282
12:00+15ссз1189100 2.8 1012143
15:00+15ссв2285100 5.4 1011171
18:00+15св578835 1.7 1009399
21:00+14св49968 2.3 1009242